This is the latest recevied weather packets stored in our database for station/object SA3PJN-WX. If no packets are shown the sender has not sent any weather packets the latest 10 day(s).
| Time | Temp. | Humidity | Pressure | Rain* | Wind** | Luminosity | Snow |
|---|---|---|---|---|---|---|---|
| 1778184012 | 4.44° C | 57% | 975 hPa | - | - | - | - |
| 1778183713 | 4.44° C | 56% | 975 hPa | - | - | - | - |
| 1778183412 | 5° C | 55% | 975 hPa | - | - | - | - |
| 1778183083 | 5° C | 54% | 975 hPa | - | - | - | - |
| 1778182752 | 5° C | 53% | 975 hPa | - | - | - | - |
| 1778182452 | 5.56° C | 53% | 975 hPa | - | - | - | - |
| 1778182152 | 5.56° C | 53% | 975 hPa | - | - | - | - |
| 1778181822 | 6.11° C | 52% | 974.6 hPa | - | - | - | - |
| 1778181522 | 6.11° C | 50% | 974.6 hPa | - | - | - | - |
| 1778181222 | 6.67° C | 48% | 974.5 hPa | - | - | - | - |
| 1778180922 | 6.67° C | 47% | 974.3 hPa | - | - | - | - |
| 1778180622 | 7.22° C | 45% | 974.3 hPa | - | - | - | - |
| 1778180322 | 7.22° C | 43% | 974.3 hPa | - | - | - | - |
| 1778179992 | 7.22° C | 42% | 974.2 hPa | - | - | - | - |
| 1778179692 | 7.22° C | 41% | 974.2 hPa | - | - | - | - |
| 1778179392 | 7.22° C | 41% | 974.2 hPa | - | - | - | - |
| 1778179092 | 7.22° C | 43% | 974 hPa | - | - | - | - |
| 1778178792 | 6.67° C | 45% | 974 hPa | - | - | - | - |
| 1778178492 | 6.67° C | 44% | 974 hPa | - | - | - | - |
| 1778178192 | 7.22° C | 43% | 974 hPa | - | - | - | - |
| 1778177892 | 7.22° C | 43% | 974 hPa | - | - | - | - |
| 1778177592 | 7.22° C | 43% | 973.6 hPa | - | - | - | - |
| 1778177292 | 7.78° C | 40% | 974 hPa | - | - | - | - |
| 1778176992 | 7.78° C | 38% | 973.6 hPa | - | - | - | - |
| 1778176692 | 7.78° C | 38% | 973.5 hPa | - | - | - | - |
* Rain since midnight (hover to see other rain measurements)
** Current wind speed in m/s (hover to see current wind gust speed)